period_start,C,m1,H,J0,J1,J2,J3,J4,J5,JA,JB,JC,JD,JJ,JK,JN,#
2016-10-05 00:04:05,0.06,0.54,0.00,24.93,28.44,31.27,14.48,45.80,1032.73,2029.94,3273.51,2995.84,3371.18,599.68,601.23,14.42,0000 0000 0000 0000 000000
2016-10-05 00:09:06,0.12,0.55,0.00,24.94,28.44,31.28,14.60,46.02,1032.73,2029.95,3270.97,2994.24,3369.22,600.20,601.59,14.47,0000 0000 0000 0000 000000
2016-10-05 00:14:08,0.09,0.55,0.00,24.91,28.44,31.28,14.55,46.05,1032.71,2029.95,3268.86,2992.81,3367.60,599.71,601.37,14.52,0000 0000 0000 0000 000000
2016-10-05 00:19:09,0.14,0.56,0.00,24.90,28.44,31.28,14.54,46.02,1032.70,2029.90,3265.75,2990.76,3365.33,599.70,601.30,14.57,0000 0000 0000 0000 000000
2016-10-05 00:24:10,0.12,0.56,0.00,24.92,28.44,31.31,14.59,46.02,1032.71,2029.90,3263.04,2988.86,3363.28,599.86,601.47,14.62,0000 0000 0000 0000 000000
2016-10-05 00:29:12,0.05,0.57,0.00,24.92,28.44,31.30,14.57,45.93,1032.73,2029.95,3261.70,2988.01,3362.08,599.68,601.31,14.67,0000 0000 0000 0000 000000
2016-10-05 00:34:13,0.05,0.57,0.00,24.91,28.43,31.28,14.57,45.92,1032.72,2029.93,3260.69,2987.27,3361.24,600.04,601.53,14.72,0000 0000 0000 0000 000000
2016-10-05 00:39:14,0.05,0.57,0.00,24.92,28.44,31.30,14.53,45.91,1032.72,2029.89,3259.45,2986.47,3360.27,599.85,601.47,14.77,0000 0000 0000 0000 000000
2016-10-05 00:44:15,0.07,0.58,0.00,24.92,28.44,31.26,14.63,45.92,1032.69,2029.79,3257.61,2985.53,3359.01,599.89,601.44,14.82,0000 0000 0000 0000 000000
2016-10-05 00:49:16,0.05,0.58,0.00,24.89,28.45,31.27,14.57,46.10,1032.72,2029.55,3255.80,2984.36,3357.75,600.08,601.58,14.87,0000 0000 0000 0000 000000
2016-10-05 00:54:17,0.06,0.58,0.00,24.92,28.45,31.27,14.61,46.03,1032.73,2029.47,3254.23,2983.40,3356.60,599.93,601.50,14.92,0000 0000 0000 0000 000000
2016-10-05 00:59:18,0.07,0.59,0.00,24.92,28.45,31.28,14.56,46.18,1032.72,2029.51,3252.64,2982.25,3355.38,599.99,601.57,14.97,0000 0000 0000 0000 000000
2016-10-05 01:04:20,0.04,0.59,0.00,24.94,28.45,31.29,14.52,46.04,1032.73,2029.22,3251.28,2981.45,3354.30,599.87,601.44,15.02,0000 0000 0000 0000 000000
2016-10-05 01:09:21,0.12,0.59,0.00,24.93,28.45,31.27,14.56,46.05,1032.71,2029.18,3248.89,2979.87,3352.43,599.97,601.65,15.07,0000 0000 0000 0000 000000
2016-10-05 01:14:22,0.14,0.60,0.00,24.93,28.45,31.29,14.60,46.06,1032.67,2029.27,3245.92,2977.89,3350.23,600.65,602.07,15.12,0000 0000 0000 0000 000000
2016-10-05 01:19:23,0.10,0.61,0.00,24.93,28.45,31.28,14.73,46.22,1032.70,2029.26,3243.39,2976.22,3348.26,600.66,602.20,15.17,0000 0000 0000 0000 000000
2016-10-05 01:24:25,0.25,0.62,0.00,24.96,28.45,31.30,14.55,46.12,1032.73,2029.22,3239.26,2973.01,3344.73,599.87,601.31,15.22,0000 0000 0000 0000 000000
2016-10-05 01:29:26,0.19,0.63,0.00,24.90,28.45,31.28,14.57,46.15,1032.73,2029.18,3235.01,2969.78,3341.22,599.75,601.53,15.27,0000 0000 0000 0000 000000
2016-10-05 01:34:28,0.17,0.64,0.00,24.92,28.45,31.27,14.64,46.18,1032.73,2029.08,3231.03,2967.16,3338.22,599.99,601.68,15.32,0000 0000 0000 0000 000000
2016-10-05 01:39:29,0.19,0.65,0.00,24.96,28.45,31.30,14.66,46.07,1032.73,2029.09,3226.97,2964.44,3335.19,600.01,601.50,15.37,0000 0000 0000 0000 000000
2016-10-05 01:44:31,0.08,0.65,0.00,24.93,28.45,31.28,14.59,46.25,1032.71,2029.05,3224.38,2962.88,3333.22,600.28,601.89,15.42,0000 0000 0000 0000 000000
2016-10-05 01:49:32,0.04,0.66,0.00,24.96,28.45,31.32,14.57,46.12,1032.70,2029.03,3223.51,2962.06,3332.56,599.98,601.42,15.47,0000 0000 0000 0000 000000
2016-10-05 01:54:33,0.05,0.66,0.00,24.94,28.46,31.31,14.69,46.10,1032.67,2029.03,3222.18,2961.34,3331.58,599.75,601.34,15.52,0000 0000 0000 0000 000000
2016-10-05 01:59:34,0.03,0.66,0.00,24.97,28.46,31.30,14.60,46.11,1032.39,2029.06,3221.26,2960.97,3330.97,600.02,601.32,15.57,0000 0000 0000 0000 000000
2016-10-05 02:04:36,0.05,0.66,0.00,24.96,28.47,31.29,14.51,46.08,1032.33,2029.07,3220.25,2960.16,3330.12,599.74,600.99,15.62,0000 0000 0000 0000 000000
2016-10-05 02:09:37,0.04,0.67,0.00,24.92,28.47,31.27,14.53,46.24,1032.28,2029.07,3219.27,2959.76,3329.30,599.64,600.96,15.67,0000 0000 0000 0000 000000
2016-10-05 02:14:38,0.04,0.67,0.00,24.94,28.47,31.26,14.63,46.07,1032.28,2029.12,3218.46,2959.06,3328.78,600.20,601.49,15.72,0000 0000 0000 0000 000000
2016-10-05 02:19:40,0.03,0.67,0.00,24.96,28.47,31.29,14.59,46.28,1032.27,2029.08,3217.67,2958.72,3328.04,599.96,601.23,15.77,0000 0000 0000 0000 000000
2016-10-05 02:24:41,0.04,0.67,0.00,24.97,28.47,31.30,14.51,46.25,1032.27,2029.08,3216.80,2958.03,3327.35,599.76,600.88,15.82,0000 0000 0000 0000 000000
2016-10-05 02:29:42,0.04,0.67,0.00,24.93,28.47,31.31,14.61,46.23,1032.28,2029.10,3215.90,2957.64,3326.85,600.28,601.62,15.87,0000 0000 0000 0000 000000
2016-10-05 02:34:44,0.09,0.68,0.00,24.95,28.47,31.31,14.52,45.99,1032.31,2029.11,3214.16,2956.44,3325.46,599.84,601.16,15.92,0000 0000 0000 0000 000000
2016-10-05 02:39:45,0.13,0.68,0.00,24.96,28.47,31.31,14.64,46.00,1032.31,2029.08,3211.33,2954.53,3323.30,600.05,601.39,15.97,0000 0000 0000 0000 000000
2016-10-05 02:44:47,0.13,0.69,0.00,24.98,28.47,31.30,14.66,46.24,1032.33,2029.07,3208.58,2952.70,3321.20,600.45,601.64,16.02,0000 0000 0000 0000 000000
2016-10-05 02:49:48,0.14,0.70,0.00,24.97,28.47,31.30,14.66,46.27,1032.55,2029.05,3205.30,2950.58,3318.78,600.07,601.43,16.08,0000 0000 0000 0000 000000
2016-10-05 02:54:50,0.08,0.70,0.00,24.98,28.47,31.31,14.56,46.25,1032.67,2029.05,3203.34,2949.31,3317.35,599.84,601.30,16.13,0000 0000 0000 0000 000000
2016-10-05 02:59:51,0.11,0.71,0.00,25.00,28.47,31.32,14.58,46.29,1032.64,2029.07,3200.99,2947.73,3315.61,600.15,601.46,16.18,0000 0000 0000 0000 000000
2016-10-05 03:04:52,0.12,0.71,0.00,25.00,28.47,31.30,14.62,46.42,1032.62,2029.05,3198.63,2946.08,3313.74,600.02,601.38,16.23,0000 0000 0000 0000 000000
2016-10-05 03:09:54,0.11,0.72,0.00,25.01,28.47,31.29,14.55,46.28,1032.58,2029.03,3196.22,2944.51,3311.85,600.01,601.34,16.28,0000 0000 0000 0000 000000
2016-10-05 03:14:55,0.10,0.73,0.00,25.00,28.47,31.29,14.59,46.27,1032.42,2029.02,3193.74,2942.96,3309.98,600.62,601.81,16.33,0000 0000 0000 0000 000000
2016-10-05 03:19:56,0.10,0.73,0.00,25.01,28.47,31.27,14.59,46.29,1032.50,2029.03,3191.84,2941.57,3308.41,599.92,601.23,16.38,0000 0000 0000 0000 000000
2016-10-05 03:24:58,0.09,0.74,0.00,25.01,28.47,31.27,14.58,46.28,1032.50,2029.01,3189.54,2940.10,3306.59,599.85,601.12,16.43,0000 0000 0000 0000 000000
2016-10-05 03:29:59,0.07,0.74,0.00,25.01,28.47,31.27,14.61,46.17,1032.54,2029.00,3187.85,2938.92,3305.47,600.32,601.71,16.48,0000 0000 0000 0000 000000
2016-10-05 03:35:00,0.11,0.75,0.00,25.05,28.48,31.30,14.60,46.19,1032.63,2029.00,3185.67,2937.50,3303.68,600.05,601.45,16.53,0000 0000 0000 0000 000000
2016-10-05 03:40:01,0.09,0.75,0.00,25.01,28.49,31.26,14.60,46.17,1032.58,2029.00,3183.52,2936.08,3302.00,600.31,601.66,16.58,0000 0000 0000 0000 000000
2016-10-05 03:45:03,0.05,0.76,0.00,24.98,28.50,31.27,14.57,46.19,1032.61,2029.00,3181.96,2935.04,3300.83,599.98,601.37,16.63,0000 0000 0000 0000 000000
2016-10-05 03:50:04,0.05,0.76,0.00,25.01,28.50,31.27,14.65,46.31,1032.68,2029.00,3180.91,2934.38,3299.96,600.18,601.41,16.68,0000 0000 0000 0000 000000
2016-10-05 03:55:06,0.05,0.76,0.00,25.00,28.50,31.31,14.56,46.28,1032.66,2029.00,3179.80,2933.72,3299.06,600.43,601.84,16.73,0000 0000 0000 0000 000000
2016-10-05 04:00:07,0.04,0.76,0.00,25.00,28.50,31.31,14.61,46.25,1032.71,2029.00,3178.79,2933.02,3298.28,600.04,601.45,16.78,0000 0000 0000 0000 000000
2016-10-05 04:05:08,0.05,0.76,0.00,24.99,28.50,31.30,14.58,46.17,1032.66,2029.00,3177.75,2932.31,3297.52,599.88,601.21,16.83,0000 0000 0000 0000 000000
2016-10-05 04:10:10,0.03,0.77,0.00,25.01,28.50,31.30,14.57,46.09,1032.72,2029.00,3176.80,2931.77,3296.76,600.26,601.65,16.88,0000 0000 0000 0000 000000
2016-10-05 04:15:11,0.03,0.77,0.00,25.01,28.50,31.29,14.56,46.06,1032.72,2029.00,3175.96,2931.04,3296.01,600.10,601.55,16.93,0000 0000 0000 0000 000000
2016-10-05 04:20:12,0.04,0.77,0.00,25.00,28.51,31.29,14.67,46.21,1032.69,2029.00,3175.08,2930.66,3295.30,599.92,601.30,16.98,0000 0000 0000 0000 000000
2016-10-05 04:25:14,0.04,0.77,0.00,25.01,28.52,31.30,14.58,46.21,1032.69,2029.00,3174.19,2930.03,3294.52,600.08,601.48,17.03,0000 0000 0000 0000 000000
2016-10-05 04:30:15,0.04,0.78,0.00,25.02,28.52,31.30,14.52,46.21,1032.71,2029.00,3173.42,2929.63,3293.95,599.79,601.09,17.08,0000 0000 0000 0000 000000
2016-10-05 04:35:17,0.04,0.78,0.00,25.00,28.52,31.30,14.59,46.19,1032.68,2029.00,3172.42,2928.98,3293.10,600.12,601.55,17.13,0000 0000 0000 0000 000000
2016-10-05 04:40:18,0.05,0.78,0.00,25.03,28.52,31.32,14.57,46.12,1032.68,2028.99,3171.54,2928.20,3292.36,600.01,601.34,17.18,0000 0000 0000 0000 000000
2016-10-05 04:45:19,0.05,0.78,0.00,25.05,28.52,31.34,14.52,46.01,1032.72,2028.99,3170.32,2927.62,3291.49,600.06,601.36,17.23,0000 0000 0000 0000 000000
2016-10-05 04:50:21,0.03,0.79,0.00,24.98,28.52,31.30,14.57,46.20,1032.73,2028.99,3169.30,2927.00,3290.87,600.06,601.51,17.28,0000 0000 0000 0000 000000
2016-10-05 04:55:22,0.05,0.79,0.00,25.03,28.52,31.31,14.58,46.27,1032.72,2028.99,3168.45,2926.31,3290.03,600.31,601.66,17.33,0000 0000 0000 0000 000000
2016-10-05 05:00:23,0.08,0.79,0.00,25.00,28.52,31.30,14.61,46.16,1032.72,2028.99,3166.80,2925.35,3288.80,600.04,601.36,17.38,0000 0000 0000 0000 000000
2016-10-05 05:05:24,0.11,0.80,0.00,24.97,28.53,31.32,14.54,46.20,1032.73,2028.99,3164.46,2923.80,3287.15,599.75,601.14,17.43,0000 0000 0000 0000 000000
2016-10-05 05:10:26,0.11,0.80,0.00,24.96,28.53,31.32,14.56,46.12,1032.73,2028.99,3162.04,2922.29,3285.38,600.09,601.79,17.48,0000 0000 0000 0000 000000
2016-10-05 05:15:27,0.17,0.81,0.00,24.98,28.54,31.33,14.55,46.10,1032.73,2028.99,3158.95,2920.24,3283.08,599.96,601.39,17.53,0000 0000 0000 0000 000000
2016-10-05 05:20:29,0.52,0.83,0.00,25.02,28.54,31.31,14.61,46.13,1032.73,2028.99,3150.22,2914.02,3276.29,599.92,601.34,17.58,0000 0000 0000 0000 000000
2016-10-05 05:25:30,0.37,0.85,0.00,24.98,28.55,31.33,14.44,46.00,1032.73,2028.99,3141.30,2907.83,3269.59,599.58,601.04,17.63,0000 0000 0000 0000 000000
2016-10-05 05:30:31,0.17,0.86,0.00,24.91,28.55,31.30,14.62,46.12,1032.73,2028.99,3137.17,2905.19,3266.61,600.18,601.79,17.68,0000 0000 0000 0000 000000
2016-10-05 05:35:33,0.10,0.87,0.00,25.02,28.55,31.30,14.52,46.13,1032.73,2028.99,3134.81,2903.63,3264.84,600.20,601.57,17.73,0000 0000 0000 0000 000000
2016-10-05 05:40:34,0.07,0.87,0.00,25.03,28.55,31.33,14.59,46.09,1032.73,2028.99,3133.32,2902.62,3263.70,600.07,601.43,17.78,0000 0000 0000 0000 000000
2016-10-05 05:45:35,0.04,0.88,0.00,25.01,28.55,31.31,14.63,46.24,1032.73,2028.99,3131.96,2901.87,3262.90,600.13,601.43,17.83,0000 0000 0000 0000 000000
2016-10-05 05:50:36,0.38,0.88,0.00,25.02,28.55,31.34,14.62,46.17,1032.73,2028.99,3127.15,2898.94,3259.63,600.46,601.89,17.88,0000 0000 0000 0000 000000
2016-10-05 05:55:37,0.16,0.90,0.00,25.02,28.55,31.33,14.57,46.31,1032.73,2028.99,3119.92,2894.78,3255.02,599.81,601.20,17.93,0000 0000 0000 0000 000000
2016-10-05 06:00:38,0.04,0.91,0.00,25.00,28.55,31.32,14.59,46.33,1032.73,2028.97,3118.92,2894.02,3254.10,600.44,601.78,17.98,0000 0000 0000 0000 000000
2016-10-05 06:05:40,0.05,0.91,0.00,25.06,28.56,31.34,14.55,46.19,1032.73,2028.95,3117.98,2893.46,3253.50,599.97,601.25,18.03,0000 0000 0000 0000 000000
2016-10-05 06:10:41,0.03,0.91,0.00,25.06,28.57,31.35,14.52,46.14,1032.74,2028.94,3116.90,2892.92,3252.77,600.00,601.28,18.08,0000 0000 0000 0000 000000
2016-10-05 06:15:42,0.05,0.91,0.00,25.01,28.57,31.33,14.50,46.14,1032.74,2028.97,3115.90,2892.22,3252.03,599.73,601.07,18.13,0000 0000 0000 0000 000000
2016-10-05 06:20:44,0.07,0.92,0.00,25.05,28.57,31.33,14.63,46.27,1032.73,2028.95,3114.40,2891.42,3251.13,599.79,601.11,18.18,0000 0000 0000 0000 000000
2016-10-05 06:25:45,0.03,0.92,0.00,25.07,28.57,31.34,14.58,46.14,1032.74,2028.96,3113.46,2890.99,3250.43,599.96,601.13,18.23,0000 0000 0000 0000 000000
2016-10-05 06:30:47,0.06,0.92,0.00,24.98,28.57,31.30,14.55,46.27,1032.73,2028.96,3112.38,2890.22,3249.65,599.65,601.05,18.28,0000 0000 0000 0000 000000
2016-10-05 06:35:48,0.05,0.93,0.00,25.03,28.57,31.31,14.52,46.10,1032.74,2028.95,3110.98,2889.31,3248.79,599.93,601.34,18.33,0000 0000 0000 0000 000000
2016-10-05 06:40:50,0.03,0.93,0.00,24.99,28.57,31.34,14.55,46.10,1032.75,2028.96,3110.06,2888.99,3248.04,599.91,601.29,18.38,0000 0000 0000 0000 000000
2016-10-05 06:45:51,0.05,0.93,0.00,24.96,28.58,31.36,14.51,46.10,1032.74,2028.94,3109.22,2888.22,3247.43,599.72,601.28,18.43,0000 0000 0000 0000 000000
2016-10-05 06:50:52,0.06,0.93,0.00,25.00,28.59,31.35,14.57,46.07,1032.75,2028.95,3107.94,2887.53,3246.55,599.99,601.48,18.48,0000 0000 0000 0000 000000
2016-10-05 06:55:53,0.06,0.93,0.00,25.01,28.59,31.35,14.60,46.00,1032.75,2028.87,3106.63,2886.76,3245.57,600.10,601.48,18.53,0000 0000 0000 0000 000000
2016-10-05 07:00:54,0.04,0.94,0.00,24.99,28.60,31.35,14.56,46.17,1032.74,2028.86,3105.54,2886.02,3244.87,599.48,601.02,18.58,0000 0000 0000 0000 000000
2016-10-05 07:05:56,0.04,0.94,0.00,24.99,28.60,31.32,14.57,46.00,1032.75,2028.86,3104.71,2885.55,3244.09,599.85,601.41,18.63,0000 0000 0000 0000 000000
2016-10-05 07:10:57,0.03,0.94,0.00,25.01,28.60,31.33,14.58,46.03,1032.76,2028.82,3103.84,2885.00,3243.55,600.02,601.31,18.69,0000 0000 0000 0000 000000
2016-10-05 07:15:59,0.05,0.94,0.00,25.00,28.60,31.36,14.55,46.00,1032.75,2028.77,3102.77,2884.30,3242.78,600.15,601.58,18.74,0000 0000 0000 0000 000000
2016-10-05 07:21:00,0.03,0.95,0.00,25.02,28.60,31.37,14.53,46.11,1032.76,2028.73,3101.64,2883.73,3241.99,599.65,601.05,18.79,0000 0000 0000 0000 000000
2016-10-05 07:26:02,0.05,0.95,0.00,25.00,28.60,31.35,14.58,46.04,1032.84,2028.63,3100.64,2883.02,3241.14,599.74,601.25,18.84,0000 0000 0000 0000 000000
2016-10-05 07:31:03,0.04,0.95,0.00,24.95,28.60,31.34,14.55,46.00,1033.08,2028.47,3099.29,2882.09,3240.12,599.67,601.39,18.89,0000 0000 0000 0000 000000
2016-10-05 07:36:04,0.11,0.95,0.00,25.06,28.60,31.37,14.49,45.99,1033.20,2028.26,3097.20,2880.70,3238.48,599.86,601.44,18.94,0000 0000 0000 0000 000000
2016-10-05 07:41:06,0.07,0.96,0.00,25.09,28.60,31.36,14.54,46.13,1033.21,2028.46,3095.67,2879.69,3237.36,599.76,601.40,18.99,0000 0000 0000 0000 000000
2016-10-05 07:46:07,0.08,0.96,0.00,25.02,28.60,31.35,14.57,46.05,1033.22,2028.42,3093.91,2878.65,3236.06,600.30,601.99,19.04,0000 0000 0000 0000 000000
2016-10-05 07:51:08,0.14,0.97,0.00,25.01,28.60,31.34,14.57,46.06,1033.22,2028.45,3091.20,2876.93,3234.03,600.04,601.70,19.09,0000 0000 0000 0000 000000
2016-10-05 07:56:09,0.11,0.98,0.00,24.99,28.60,31.37,14.61,46.08,1033.22,2028.39,3088.51,2875.13,3232.01,600.10,601.83,19.14,0000 0000 0000 0000 000000
2016-10-05 08:01:10,0.10,0.98,0.00,24.99,28.60,31.39,14.53,46.19,1033.22,2028.22,3086.25,2873.54,3230.22,599.77,601.44,19.19,0000 0000 0000 0000 000000
2016-10-05 08:06:12,0.15,0.99,0.00,25.02,28.60,31.39,14.56,46.12,1033.22,2028.30,3083.45,2871.71,3228.12,599.84,601.49,19.24,0000 0000 0000 0000 000000
2016-10-05 08:11:13,0.12,1.00,0.00,24.97,28.60,31.36,14.56,46.05,1033.22,2028.16,3080.70,2869.74,3225.93,599.96,601.72,19.29,0000 0000 0000 0000 000000
2016-10-05 08:16:14,0.10,1.00,0.00,25.02,28.60,31.35,14.57,45.99,1033.22,2028.23,3078.49,2868.39,3224.38,599.86,601.54,19.34,0000 0000 0000 0000 000000
2016-10-05 08:21:15,0.11,1.01,0.00,25.11,28.60,31.40,14.58,45.99,1033.22,2028.25,3076.41,2866.94,3222.71,599.89,601.45,19.39,0000 0000 0000 0000 000000
2016-10-05 08:26:17,0.11,1.01,0.00,25.00,28.60,31.36,14.58,46.13,1033.22,2028.10,3074.05,2865.36,3220.85,600.18,601.84,19.44,0000 0000 0000 0000 000000
2016-10-05 08:31:18,0.10,1.02,0.00,24.95,28.60,31.35,14.54,45.91,1033.22,2028.20,3071.92,2863.95,3219.36,599.93,601.79,19.49,0000 0000 0000 0000 000000
2016-10-05 08:36:19,0.06,1.02,0.00,25.02,28.60,31.39,14.66,46.03,1033.23,2028.17,3070.63,2862.95,3218.17,600.21,601.91,19.54,0000 0000 0000 0000 000000
2016-10-05 08:41:20,0.05,1.02,0.00,24.98,28.60,31.39,14.53,46.04,1033.23,2028.14,3069.35,2862.02,3217.13,599.86,601.59,19.59,0000 0000 0000 0000 000000
2016-10-05 08:46:22,0.07,1.03,0.00,24.99,28.60,31.37,14.58,46.04,1033.23,2028.14,3068.02,2861.11,3216.08,599.84,601.52,19.64,0000 0000 0000 0000 000000
2016-10-05 08:51:23,0.12,1.03,0.00,24.97,28.60,31.35,14.51,46.03,1033.24,2028.15,3065.91,2859.68,3214.45,599.91,601.72,19.69,0000 0000 0000 0000 000000
2016-10-05 08:56:24,0.10,1.04,0.00,25.00,28.60,31.36,14.55,46.04,1033.23,2028.15,3063.53,2858.05,3212.64,599.99,601.72,19.74,0000 0000 0000 0000 000000
2016-10-05 09:01:26,0.08,1.04,0.00,24.98,28.60,31.34,14.65,46.04,1033.25,2028.22,3061.86,2856.89,3211.48,600.52,602.26,19.79,0000 0000 0000 0000 000000
2016-10-05 09:06:27,0.15,1.05,0.00,25.00,28.60,31.38,14.60,46.13,1033.23,2028.21,3059.23,2855.20,3209.45,600.24,601.95,19.84,0000 0000 0000 0000 000000
2016-10-05 09:11:28,0.11,1.06,0.00,25.02,28.60,31.36,14.59,46.11,1033.22,2028.27,3056.91,2853.57,3207.63,600.00,601.61,19.89,0000 0000 0000 0000 000000
2016-10-05 09:16:29,0.09,1.06,0.00,24.95,28.60,31.36,14.58,46.08,1033.24,2028.30,3054.95,2852.30,3206.13,600.14,601.92,19.94,0000 0000 0000 0000 000000
2016-10-05 09:21:30,0.10,1.07,0.00,24.98,28.60,31.37,14.64,46.02,1033.24,2028.22,3052.75,2850.79,3204.50,600.20,602.03,19.99,0000 0000 0000 0000 000000
2016-10-05 09:26:31,0.14,1.07,0.00,25.00,28.60,31.37,14.62,46.11,1033.24,2028.35,3050.42,2849.29,3202.77,600.32,601.92,20.04,0000 0000 0000 0000 000000
2016-10-05 09:31:33,0.12,1.08,0.00,24.94,28.60,31.35,14.55,46.08,1033.24,2028.50,3047.90,2847.66,3200.83,599.39,601.20,20.09,0000 0000 0000 0000 000000
2016-10-05 09:36:34,0.11,1.09,0.00,24.98,28.60,31.33,14.68,46.15,1033.25,2028.53,3045.83,2846.28,3199.37,600.27,602.04,20.14,0000 0000 0000 0000 000000
2016-10-05 09:41:35,0.07,1.09,0.00,25.02,28.60,31.38,14.65,46.03,1033.23,2028.40,3044.03,2844.91,3198.01,600.36,602.16,20.19,0000 0000 0000 0000 000000
2016-10-05 09:46:36,0.11,1.10,0.00,24.96,28.60,31.36,14.62,46.07,1033.23,2028.39,3041.78,2843.45,3196.33,599.83,601.53,20.24,0000 0000 0000 0000 000000
2016-10-05 09:51:38,0.08,1.10,0.00,24.99,28.60,31.37,14.64,46.11,1033.23,2028.45,3040.27,2842.36,3195.14,600.20,601.98,20.29,0000 0000 0000 0000 000000
2016-10-05 09:56:39,0.03,1.10,0.00,25.01,28.60,31.37,14.57,46.01,1033.27,2028.48,3039.36,2841.83,3194.35,600.12,601.86,20.34,0000 0000 0000 0000 000000
2016-10-05 10:01:40,0.09,1.11,0.00,24.94,28.59,31.35,14.64,46.13,1033.28,2028.26,3037.45,2840.57,3192.93,600.10,602.06,20.39,0000 0000 0000 0000 000000
2016-10-05 10:06:42,0.11,1.11,0.00,24.95,28.59,31.38,14.57,46.20,1033.28,2028.20,3035.03,2838.91,3191.19,600.04,601.92,20.44,0000 0000 0000 0000 000000
2016-10-05 10:11:43,0.12,1.12,0.00,24.96,28.58,31.35,14.60,46.05,1033.37,2028.30,3032.95,2837.47,3189.49,600.36,602.26,20.49,0000 0000 0000 0000 000000
2016-10-05 10:16:44,0.10,1.12,0.00,24.97,28.58,31.38,14.68,46.18,1033.32,2028.12,3030.54,2835.84,3187.68,600.41,602.22,20.54,0000 0000 0000 0000 000000
2016-10-05 10:21:46,0.10,1.13,0.00,25.01,28.57,31.35,14.57,45.97,1033.47,2028.21,3028.73,2834.68,3186.29,599.74,601.75,20.59,0000 0000 0000 0000 000000
2016-10-05 10:26:47,0.09,1.13,0.00,25.01,28.57,31.34,14.57,46.02,1033.39,2028.17,3026.70,2833.29,3184.77,599.97,601.78,20.64,0000 0000 0000 0000 000000
2016-10-05 10:31:48,0.06,1.14,0.00,25.00,28.57,31.34,14.64,46.00,1033.47,2028.08,3025.04,2832.08,3183.42,600.35,602.21,20.69,0000 0000 0000 0000 000000
2016-10-05 10:36:50,0.06,1.14,0.00,24.96,28.57,31.36,14.55,46.07,1033.55,2028.26,3024.12,2831.73,3182.87,599.91,601.94,20.74,0000 0000 0000 0000 000000
2016-10-05 10:41:51,0.03,1.14,0.00,24.94,28.57,31.35,14.59,46.09,1033.53,2028.22,3023.14,2831.01,3182.03,600.12,602.15,20.79,0000 0000 0000 0000 000000
2016-10-05 10:46:53,0.07,1.15,0.00,24.98,28.57,31.37,14.55,46.13,1033.65,2028.20,3022.14,2830.22,3181.20,600.12,602.13,20.84,0000 0000 0000 0000 000000
2016-10-05 10:51:54,0.05,1.15,0.00,25.01,28.57,31.35,14.57,46.10,1033.61,2028.37,3021.36,2829.90,3180.76,599.95,601.84,20.89,0000 0000 0000 0000 000000
2016-10-05 10:56:55,0.03,1.15,0.00,24.97,28.57,31.34,14.61,46.08,1033.63,2028.31,3020.45,2829.12,3180.01,599.97,602.03,20.94,0000 0000 0000 0000 000000
2016-10-05 11:01:57,0.05,1.15,0.00,25.03,28.57,31.34,14.66,46.02,1033.65,2028.25,3019.42,2828.66,3179.21,600.39,602.11,20.99,0000 0000 0000 0000 000000
2016-10-05 11:06:58,0.06,1.16,0.00,25.00,28.57,31.35,14.59,46.00,1033.60,2028.52,3018.47,2828.03,3178.67,600.00,601.92,21.04,0000 0000 0000 0000 000000
2016-10-05 11:11:59,0.02,1.16,0.00,25.00,28.57,31.36,14.64,46.09,1033.49,2028.29,3017.38,2827.29,3177.97,600.08,601.97,21.09,0000 0000 0000 0000 000000
2016-10-05 11:17:00,0.04,1.16,0.00,24.95,28.57,31.33,14.52,46.05,1033.37,2028.31,3016.75,2826.98,3177.17,600.07,601.93,21.14,0000 0000 0000 0000 000000
2016-10-05 11:22:02,0.06,1.16,0.00,24.99,28.57,31.36,14.60,46.02,1033.35,2028.36,3015.70,2826.20,3176.49,600.08,601.98,21.19,0000 0000 0000 0000 000000
2016-10-05 11:27:03,0.02,1.17,0.00,24.97,28.57,31.33,14.55,46.09,1033.29,2028.45,3014.91,2825.90,3175.96,600.04,601.83,21.24,0000 0000 0000 0000 000000
2016-10-05 11:32:04,0.06,1.17,0.00,24.99,28.57,31.35,14.50,46.10,1033.29,2028.47,3013.90,2825.09,3175.11,599.79,601.52,21.29,0000 0000 0000 0000 000000
2016-10-05 11:37:05,0.05,1.17,0.00,24.96,28.57,31.35,14.62,46.02,1033.29,2028.34,3012.82,2824.44,3174.27,599.85,601.69,21.34,0000 0000 0000 0000 000000
2016-10-05 11:42:06,0.04,1.17,0.00,24.95,28.57,31.34,14.55,46.08,1033.27,2028.33,3011.80,2823.89,3173.47,599.78,601.68,21.39,0000 0000 0000 0000 000000
2016-10-05 11:47:08,0.07,1.18,0.00,24.97,28.57,31.37,14.63,46.02,1033.28,2028.46,3010.86,2823.11,3172.87,600.15,601.85,21.44,0000 0000 0000 0000 000000
2016-10-05 11:52:09,0.04,1.18,0.00,24.89,28.57,31.35,14.49,46.10,1033.25,2028.51,3010.00,2822.78,3172.09,599.66,601.57,21.49,0000 0000 0000 0000 000000
2016-10-05 11:57:10,0.05,1.18,0.00,24.93,28.56,31.31,14.56,46.05,1033.24,2028.30,3008.71,2821.76,3171.11,599.69,601.55,21.54,0000 0000 0000 0000 000000
2016-10-05 12:02:12,0.05,1.18,0.00,24.97,28.56,31.37,14.55,46.08,1033.24,2028.33,3007.58,2820.97,3170.12,599.81,601.58,21.59,0000 0000 0000 0000 000000
2016-10-05 12:07:13,0.08,1.19,0.00,24.98,28.55,31.35,14.58,46.00,1033.24,2028.17,3005.55,2819.92,3168.98,599.94,601.69,21.64,0000 0000 0000 0000 000000
2016-10-05 12:12:14,0.06,1.19,0.00,24.96,28.55,31.33,14.54,46.02,1033.25,2028.13,3003.70,2819.03,3167.94,599.87,601.73,21.69,0000 0000 0000 0000 000000
2016-10-05 12:17:16,0.08,1.19,0.00,24.96,28.55,31.31,14.55,46.04,1033.25,2028.11,3002.30,2818.09,3166.84,599.90,601.64,21.74,0000 0000 0000 0000 000000
2016-10-05 12:22:17,0.14,1.20,0.00,24.98,28.55,31.35,14.57,46.17,1033.24,2028.12,2999.79,2816.42,3164.90,599.69,601.47,21.79,0000 0000 0000 0000 000000
2016-10-05 12:27:18,0.12,1.21,0.00,24.94,28.55,31.33,14.57,45.93,1033.25,2028.08,2997.25,2814.74,3162.91,599.61,601.46,21.84,0000 0000 0000 0000 000000
2016-10-05 12:32:19,0.12,1.21,0.00,24.92,28.55,31.34,14.56,46.02,1033.24,2028.08,2994.91,2813.06,3161.07,599.66,601.57,21.89,0000 0000 0000 0000 000000
2016-10-05 12:37:21,0.05,1.22,0.00,24.95,28.55,31.35,14.66,46.07,1033.23,2028.07,2993.63,2812.04,3160.03,600.27,602.29,21.94,0000 0000 0000 0000 000000
2016-10-05 12:42:22,0.04,1.22,0.00,24.97,28.55,31.38,14.53,46.01,1033.23,2028.11,2992.83,2811.72,3159.47,600.04,601.95,21.99,0000 0000 0000 0000 000000
2016-10-05 12:47:23,0.08,1.22,0.00,24.95,28.55,31.37,14.64,46.09,1033.23,2028.07,2991.39,2810.62,3158.32,600.10,601.96,22.04,0000 0000 0000 0000 000000
2016-10-05 12:52:24,0.09,1.23,0.00,24.95,28.55,31.35,14.63,46.12,1033.23,2028.16,2989.47,2809.35,3156.94,600.01,601.83,22.09,0000 0000 0000 0000 000000
2016-10-05 12:57:25,0.07,1.23,0.00,24.93,28.55,31.33,14.56,46.11,1033.23,2028.21,2988.15,2808.50,3155.83,599.81,601.71,22.14,0000 0000 0000 0000 000000